Location: Arbon
(43.0005°N, 0.7472°E)
Time: 22:24:15
(UTC+00:00)

Explorer 7 - Pass Details

Date: 30 November 2020
Orbit: 484 x 678 km, 50.3° (Epoch: 25 January)

Event Time Altitude Azimuth Distance (km) Brightness Sun altitude
Rises 23:41:33 0° 201° (SSW) 2,983 - -68.8°
Reaches altitude 10° 23:44:18 10° 187° (S) 2,053 - -68.8°
Maximum altitude 23:48:03 23° 135° (SE) 1,339 - -68.8°
Drops below altitude 10° 23:51:40 10° 82° (E) 1,980 - -68.8°
Sets 23:54:15 0° 68° (ENE) 2,851 - -68.8°
